Terminal Aerodrome Forecast
Issued by NWS Knoxville/Tri Cities, TN

Home | Current Version | Previous Version | Text Only | Print | Product List | Glossary On
Versions: 1 2 3 4 5 6 7 8 9 10 11 12 13 14 15 16 17 18 19 20 21 22 23 24 25 26 27 28 29 30 31
000
FTUS44 KMRX 302320
TAFTRI
TAF
KTRI 302320Z 3100/3124 33008KT P6SM SKC
     FM310400 00000KT P6SM SCT250=

USA.gov is the U.S. government's official web portal to all federal, state and local government web resources and services.